Precipitation
CZ | SK | EN 
Station: Křižanovice
River: Chrudimka
Date Water level [m. n. m.] Outflow [m3s-1]
06.05.2026 12:20 402,90 0,73
06.05.2026 12:00 402,90 0,73
06.05.2026 11:00 402,90 0,74
06.05.2026 10:00 402,90 0,73
06.05.2026 09:00 402,90 0,74
06.05.2026 08:00 402,89 0,75
06.05.2026 07:00 403,01 0,73
06.05.2026 06:00 403,00 0,72
06.05.2026 05:00 403,01 0,72
06.05.2026 04:00 402,99 0,72
06.05.2026 03:00 403,00 0,73
06.05.2026 02:00 402,99 0,72
06.05.2026 01:00 402,98 0,72
06.05.2026 00:00 402,98 0,72
05.05.2026 23:00 402,97 0,72
05.05.2026 22:00 402,96 0,72
05.05.2026 21:00 402,96 0,72
05.05.2026 20:00 402,95 0,73
05.05.2026 19:00 402,94 0,73
05.05.2026 18:00 402,94 0,73
05.05.2026 17:00 402,92 0,73
05.05.2026 16:00 402,91 0,73
05.05.2026 15:00 402,90 0,79
05.05.2026 14:00 402,90 0,79
05.05.2026 13:00 402,89 0,80
05.05.2026 07:00 403,01 0,78
04.05.2026 07:00 403,03 0,82
03.05.2026 07:00 403,09 0,83
02.05.2026 07:00 403,14 0,84
01.05.2026 07:00 403,18 0,85
30.04.2026 07:00 403,23 0,84
Graf

Graf